Weather History for Albertville, AL

Change the Weather History Date:

Friday, March 29, 2013

  Actual Average (KGAD) Record (KGAD)
Temperature  
Mean Temperature 54 °F -  
Max Temperature 68 °F 66 °F 84 °F (2007)
Min Temperature 41 °F 41 °F 26 °F (1947)
Degree Days  
Heating Degree Days 10    
Growing Degree Days 4 (Base 50)    
Moisture  
Dew Point 33 °F    
Average Humidity 47    
Maximum Humidity 70    
Minimum Humidity 24    
Precipitation  
Precipitation 0.00 in - - ()
Sea Level Pressure  
Sea Level Pressure 30.23 in    
Wind  
Wind Speed 5 mph (SSE)    
Max Wind Speed 16 mph    
Max Gust Speed 20 mph    
Visibility 10 miles    
Events Rain    
Averages and records for this station are not official NWS values.
T = Trace of Precipitation, MM = Missing Value Source: NWS Daily Summary

Daily Weather History Graph

Daily Weather History Graph

Search for Another Location

Airport:

Trip Planner

Search our weather history database for the weather conditions in past years. The results will help you decide how hot, cold, wet, or windy it might be!

Date:

Astronomy

Mar. 29, 2013 Rise Set
Actual Time 6:36 AM CDT 7:03 PM CDT
Civil Twilight 6:10 AM CDT 7:29 PM CDT
Nautical Twilight 5:41 AM CDT 7:58 PM CDT
Astronomical Twilight 5:11 AM CDT 8:28 PM CDT
Moon 9:54 PM CDT (3/29) 7:52 AM CDT (3/29)
Length of Visible Light 13h 18m
Length of Day
12h 27m
Waning Gibbous, 93% of the Moon is Illuminated
Mar 29
Waning Gibbous
Apr 2
Last Quarter
Apr 10
New
Apr 18
First Quarter
Apr 25
Full

Hourly Weather History & Observations

Time (CDT) Temp. Windchill Dew Point Humidity Pressure Visibility Wind Dir Wind Speed Gust Speed Precip Events Conditions
12:15 AM 46.4 °F 44.3 °F 32.0 °F 57% 30.29 in 10.0 mi East 4.6 mph - N/A   Clear
12:35 AM 46.4 °F 44.3 °F 32.0 °F 57% 30.28 in 10.0 mi ESE 4.6 mph - N/A   Clear
12:55 AM 42.8 °F 40.1 °F 32.0 °F 66% 30.29 in 10.0 mi East 4.6 mph - N/A   Clear
1:15 AM 44.6 °F 43.1 °F 32.0 °F 61% 30.29 in 10.0 mi East 3.5 mph - N/A   Clear
1:35 AM 42.8 °F 41.1 °F 32.0 °F 66% 30.29 in 10.0 mi East 3.5 mph - N/A   Clear
1:55 AM 42.8 °F 39.3 °F 32.0 °F 66% 30.28 in 10.0 mi SE 5.8 mph - N/A   Clear
2:15 AM 41.0 °F - 32.0 °F 70% 30.29 in 10.0 mi Calm Calm - N/A   Clear
2:35 AM 42.8 °F 41.1 °F 32.0 °F 66% 30.28 in 10.0 mi ESE 3.5 mph - N/A   Clear
2:55 AM 42.8 °F 40.1 °F 32.0 °F 66% 30.28 in 10.0 mi East 4.6 mph - N/A   Scattered Clouds
3:15 AM 42.8 °F 41.1 °F 32.0 °F 66% 30.27 in 10.0 mi ESE 3.5 mph - N/A   Scattered Clouds
3:35 AM 44.6 °F 43.1 °F 30.2 °F 57% 30.27 in 10.0 mi ESE 3.5 mph - N/A   Clear
3:55 AM 41.0 °F 39.0 °F 32.0 °F 70% 30.27 in 10.0 mi East 3.5 mph - N/A   Scattered Clouds
4:15 AM 41.0 °F 39.0 °F 32.0 °F 70% 30.27 in 10.0 mi East 3.5 mph - N/A   Scattered Clouds
4:35 AM 42.8 °F 40.1 °F 32.0 °F 66% 30.26 in 10.0 mi ESE 4.6 mph - N/A   Scattered Clouds
4:55 AM 42.8 °F 40.1 °F 30.2 °F 61% 30.26 in 10.0 mi ESE 4.6 mph - N/A   Scattered Clouds
5:15 AM 42.8 °F 40.1 °F 30.2 °F 61% 30.27 in 10.0 mi SE 4.6 mph - N/A   Scattered Clouds
5:35 AM 42.8 °F 40.1 °F 30.2 °F 61% 30.27 in 10.0 mi ESE 4.6 mph - N/A   Scattered Clouds
5:55 AM 44.6 °F 42.2 °F 30.2 °F 57% 30.27 in 10.0 mi SE 4.6 mph - N/A   Clear
6:15 AM 42.8 °F 39.3 °F 30.2 °F 61% 30.28 in 10.0 mi SE 5.8 mph - N/A   Clear
6:35 AM 42.8 °F 38.6 °F 32.0 °F 66% 30.28 in 10.0 mi SE 6.9 mph - N/A   Clear
6:55 AM 44.6 °F 40.7 °F 32.0 °F 61% 30.28 in 10.0 mi SE 6.9 mph - N/A   Clear
7:15 AM 44.6 °F 41.4 °F 32.0 °F 61% 30.28 in 10.0 mi SE 5.8 mph - N/A   Clear
7:35 AM 46.4 °F 43.5 °F 32.0 °F 57% 30.29 in 10.0 mi SE 5.8 mph - N/A   Scattered Clouds
7:55 AM 46.4 °F 44.3 °F 32.0 °F 57% 30.29 in 10.0 mi SE 4.6 mph - N/A   Mostly Cloudy
8:15 AM 48.2 °F - 32.0 °F 54% 30.29 in 10.0 mi ESE 4.6 mph - N/A   Overcast
8:35 AM 50.0 °F - 32.0 °F 50% 30.29 in 10.0 mi SE 3.5 mph - N/A   Overcast
8:55 AM 51.8 °F - 32.0 °F 47% 30.29 in 10.0 mi SE 5.8 mph - N/A   Overcast
9:15 AM 51.8 °F - 32.0 °F 47% 30.30 in 10.0 mi SSE 3.5 mph - N/A   Overcast
9:35 AM 53.6 °F - 32.0 °F 44% 30.30 in 10.0 mi South 6.9 mph - N/A   Overcast
9:55 AM 53.6 °F - 32.0 °F 44% 30.30 in 10.0 mi South 9.2 mph - N/A   Overcast
10:15 AM 55.4 °F - 32.0 °F 41% 30.30 in 10.0 mi South 11.5 mph - N/A   Mostly Cloudy
10:35 AM 59.0 °F - 32.0 °F 36% 30.29 in 10.0 mi South 6.9 mph 10.4 mph N/A   Scattered Clouds
10:55 AM 60.8 °F - 32.0 °F 34% 30.29 in 10.0 mi SSW 8.1 mph - N/A   Mostly Cloudy
11:15 AM 60.8 °F - 32.0 °F 34% 30.29 in 10.0 mi South 5.8 mph - N/A   Overcast
11:35 AM 62.6 °F - 30.2 °F 30% 30.28 in 10.0 mi WSW 11.5 mph - N/A   Overcast
11:55 AM 62.6 °F - 30.2 °F 30% 30.27 in 10.0 mi SW 10.4 mph - N/A   Mostly Cloudy
12:15 PM 64.4 °F - 32.0 °F 30% 30.26 in 10.0 mi SW 10.4 mph - N/A   Mostly Cloudy
12:35 PM 64.4 °F - 30.2 °F 28% 30.25 in 10.0 mi SW 10.4 mph - N/A   Mostly Cloudy
12:55 PM 66.2 °F - 28.4 °F 24% 30.24 in 10.0 mi SW 11.5 mph 19.6 mph N/A   Mostly Cloudy
1:15 PM 66.2 °F - 30.2 °F 26% 30.23 in 10.0 mi WSW 16.1 mph 19.6 mph N/A   Mostly Cloudy
1:55 PM 68.0 °F - 32.0 °F 26% 30.21 in 10.0 mi West 11.5 mph 18.4 mph N/A   Overcast
2:15 PM 64.4 °F - 32.0 °F 30% 30.20 in 10.0 mi SW 8.1 mph - N/A   Overcast
2:35 PM 64.4 °F - 32.0 °F 30% 30.19 in 10.0 mi SW 8.1 mph - N/A   Overcast
2:55 PM 64.4 °F - 32.0 °F 30% 30.19 in 10.0 mi SW 4.6 mph - N/A   Overcast
3:15 PM 66.2 °F - 32.0 °F 28% 30.18 in 10.0 mi SW 5.8 mph - N/A   Mostly Cloudy
3:35 PM 66.2 °F - 32.0 °F 28% 30.18 in 10.0 mi SW 5.8 mph - N/A   Mostly Cloudy
3:55 PM 66.2 °F - 32.0 °F 28% 30.17 in 10.0 mi West 6.9 mph 17.3 mph N/A   Mostly Cloudy
4:15 PM 66.2 °F - 32.0 °F 28% 30.17 in 10.0 mi SW 5.8 mph - N/A   Overcast
4:35 PM 66.2 °F - 32.0 °F 28% 30.17 in 10.0 mi WNW 9.2 mph - N/A   Scattered Clouds
4:55 PM 64.4 °F - 32.0 °F 30% 30.16 in 10.0 mi WNW 4.6 mph - N/A   Scattered Clouds
5:15 PM 64.4 °F - 32.0 °F 30% 30.15 in 10.0 mi Calm Calm - N/A   Clear
5:55 PM 64.4 °F - 32.0 °F 30% 30.15 in 10.0 mi Calm Calm - N/A   Overcast
6:15 PM 64.4 °F - 33.8 °F 32% 30.15 in 10.0 mi Calm Calm - N/A   Overcast
6:35 PM 62.6 °F - 33.8 °F 34% 30.15 in 10.0 mi South 3.5 mph - N/A   Overcast
6:55 PM 62.6 °F - 35.6 °F 37% 30.15 in 10.0 mi South 4.6 mph - N/A   Overcast
7:15 PM 62.6 °F - 33.8 °F 34% 30.15 in 10.0 mi SSW 4.6 mph - N/A   Overcast
7:35 PM 62.6 °F - 33.8 °F 34% 30.15 in 10.0 mi SSW 3.5 mph - N/A   Overcast
7:55 PM 60.8 °F - 35.6 °F 39% 30.16 in 10.0 mi West 9.2 mph - N/A   Overcast
8:15 PM 59.0 °F - 37.4 °F 45% 30.17 in 10.0 mi NNW 9.2 mph - N/A   Overcast
8:55 PM 55.4 °F - 37.4 °F 51% 30.18 in 10.0 mi North 5.8 mph - N/A   Overcast
9:15 PM 55.4 °F - 37.4 °F 51% 30.19 in 10.0 mi North 4.6 mph - N/A   Overcast
9:35 PM 53.6 °F - 37.4 °F 54% 30.19 in 10.0 mi ENE 4.6 mph - N/A Rain Light Rain
9:55 PM 53.6 °F - 37.4 °F 54% 30.19 in 10.0 mi ENE 4.6 mph - N/A   Overcast
10:15 PM 53.6 °F - 37.4 °F 54% 30.19 in 10.0 mi Calm Calm - N/A   Overcast
10:35 PM 53.6 °F - 39.2 °F 58% 30.19 in 10.0 mi East 3.5 mph - N/A   Overcast
10:55 PM 53.6 °F - 37.4 °F 54% 30.19 in 10.0 mi East 4.6 mph - N/A   Overcast
11:15 PM 53.6 °F - 37.4 °F 54% 30.18 in 10.0 mi East 3.5 mph - N/A   Overcast
11:35 PM 53.6 °F - 37.4 °F 54% 30.18 in 10.0 mi East 3.5 mph - N/A   Overcast
11:55 PM 53.6 °F - 35.6 °F 51% 30.17 in 10.0 mi East 3.5 mph - N/A   Overcast